Tracking 17938 objects as of 21-February-2017
HD Live streaming from Space Station
objects crossing your sky now

ABS 3

Track ABS 3 now!
ABS 3 is classified as:


NORAD ID: 24901
Int'l Code: 1997-042A
Perigee: 35,755.1 km
Apogee: 35,832.7 km
Inclination: 4.7 °
Period: 1,436.1 minutes
Semi major axis: 42164 km
RCS: 10 m2 (large)
Launch date: August 19, 1997
Source: People's Republic of China (PRC)
Launch site: Xichang Space Center, China (XSC)

Most powerful telecommunications satellite in service in the Asia-Pacific region; 30 C-band, 24 Ku-band transponders; 190 high fidelity channels and 50,000 simultaneous telephone links.
Your satellite tracking list
Your tracking list is empty





NASA's NSSDC Master Catalog

Two Line Element Set (TLE):
1 24901U 97042A   17052.05611177 -.00000198  00000-0  00000+0 0  9999
2 24901   4.6769  63.9376 0009199 275.3972 277.2815  1.00271230 71407
Source of the keplerian elements: AFSPC